DW0630 Weather Reports


time (UTC)temp
C
wind
direction
speed
KPH
gust
KPH
rain 1hr
cm
rain 24hr
cm
rain mn
cm
humidity
%
barometer
mb
20260510180014 13 54 19.3 32.2 0.00 0.00 0.00 62 1014.3
20260510174511 13 53 20.9 32.2 0.00 0.00 0.00 63 1014.4
20260510173012 13 32 20.9 30.6 0.00 0.00 0.00 63 1014.5
20260510171511 13 42 22.5 35.4 0.00 0.00 0.00 62 1014.4
20260510170014 13 51 22.5 32.2 0.00 0.00 0.00 65 1014.6
20260510164511 12 30 25.7 38.6 0.00 0.00 0.00 64 1014.7
20260510163014 12 33 24.1 35.4 0.00 0.00 0.00 66 1014.7
20260510161512 12 44 22.5 33.8 0.00 0.00 0.00 68 1014.9
20260510153012 12 44 25.7 35.4 0.00 0.00 0.00 69 1015.2
20260510150013 12 46 29.0 38.6 0.00 0.00 0.00 68 1015.5
20260510144511 13 61 27.4 41.8 0.00 0.00 0.00 68 1015.7
20260510143012 13 50 30.6 41.8 0.00 0.00 0.00 68 1015.8
20260510141512 13 49 29.0 46.7 0.00 0.00 0.00 68 1016.0
20260510134512 13 41 30.6 43.5 0.00 0.00 0.00 68 1016.1
20260510131511 14 51 30.6 45.1 0.00 0.00 0.00 66 1016.1
20260510124510 14 42 29.0 38.6 0.00 0.00 0.00 66 1016.2
20260510121510 14 40 27.4 37.0 0.00 0.00 0.00 68 1016.4
20260510120013 14 55 30.6 45.1 0.00 0.00 0.00 63 1016.4
20260510114512 15 62 25.7 38.6 0.00 0.00 0.00 67 1016.5
20260510113028 13 57 29.0 40.2 0.00 0.00 0.00 69 1016.6
20260510111519 13 47 25.7 35.4 0.00 0.00 0.00 68 1016.8
20260510104557 13 65 29.0 37.0 0.00 0.00 0.00 69 1016.9
20260510103026 13 57 25.7 37.0 0.00 0.00 0.00 69 1017.1
20260510101516 12 57 29.0 40.2 0.00 0.00 0.00 70 1017.1
20260510100032 13 39 27.4 38.6 0.00 0.00 0.00 70 1017.2
20260510094519 12 36 30.6 45.1 0.00 0.00 0.00 71 1017.3
20260510093053 12 62 30.6 45.1 0.00 0.00 0.00 70 1017.5
20260510091537 12 53 30.6 43.5 0.00 0.00 0.00 70 1017.6
20260510084556 12 61 27.4 40.2 0.00 0.00 0.00 70 1017.7
20260510083026 12 55 25.7 33.8 0.00 0.00 0.00 72 1017.7
20260510081512 12 54 30.6 46.7 0.00 0.00 0.00 71 1017.8
20260510074511 12 41 24.1 37.0 0.00 0.00 0.00 74 1017.7
20260510073012 11 40 27.4 37.0 0.00 0.00 0.00 76 1017.7
20260510071512 11 33 24.1 37.0 0.00 0.00 0.00 79 1017.7
20260510070041 10 44 29.0 45.1 0.00 0.00 0.00 79 1017.6
20260510064536 10 59 27.4 38.6 0.00 0.00 0.00 80 1017.4
20260510063033 9 58 27.4 40.2 0.00 0.00 0.00 82 1017.3
20260510061522 9 40 24.1 35.4 0.00 0.00 0.00 82 1017.1
20260510060018 9 34 22.5 30.6 0.00 0.00 0.00 83 1017.3
20260510054512 8 56 22.5 32.2 0.00 0.00 0.00 85 1017.2
20260510053013 8 63 16.1 24.1 0.00 0.00 0.00 87 1017.4
20260510051515 7 49 14.5 27.4 0.00 0.00 0.00 87 1017.5
20260510050028 7 56 9.7 19.3 0.00 0.00 0.00 86 1017.6
20260510044519 7 56 8.0 16.1 0.00 0.00 0.00 85 1017.6
20260510041512 7 44 12.9 20.9 0.00 0.00 0.00 83 1017.6
20260510040028 7 60 16.1 25.7 0.00 0.00 0.00 81 1017.6
20260510033024 8 51 16.1 22.5 0.00 0.00 0.00 76 1017.6
20260510031514 8 48 12.9 22.5 0.00 0.00 0.00 74 1017.6
20260510030013 8 73 16.1 25.7 0.00 0.00 0.00 74 1017.7
20260510024513 9 63 14.5 22.5 0.00 0.00 0.00 72 1017.7
20260510023014 9 62 16.1 24.1 0.00 0.00 0.00 71 1017.7
20260510021513 10 61 16.1 27.4 0.00 0.00 0.00 70 1017.6
20260510020014 10 60 20.9 32.2 0.00 0.00 0.00 69 1017.5
20260510013013 10 61 14.5 25.7 0.00 0.00 0.00 67 1017.3
20260510011511 10 55 17.7 25.7 0.00 0.00 0.00 67 1017.4
20260510010030 11 55 14.5 25.7 0.00 0.00 0.00 67 1017.4
20260510004517 11 53 16.1 22.5 0.00 0.00 0.00 68 1017.4
20260510003013 11 43 9.7 17.7 0.00 0.00 0.00 71 1017.4
20260510001513 11 51 12.9 20.9 0.00 0.00 0.00 71 1017.4
20260510000014 11 44 12.9 19.3 0.00 0.00 0.00 71 1017.4
20260509233025 11 50 11.3 17.7 0.00 0.00 0.00 70 1017.2
20260509231512 11 56 9.7 16.1 0.00 0.00 0.00 71 1017.1
20260509224511 11 77 6.4 14.5 0.00 0.00 0.00 72 1016.9
20260509221513 12 55 6.4 11.3 0.00 0.00 0.00 71 1016.6
20260509220017 12 45 4.8 6.4 0.00 0.00 0.00 70 1016.8
20260509211513 13 23 4.8 8.0 0.00 0.00 0.00 67 1016.5
20260509204512 13 32 8.0 12.9 0.00 0.00 0.00 65 1016.2
20260509203013 14 24 8.0 14.5 0.00 0.00 0.00 64 1016.1
20260509201512 15 35 9.7 12.9 0.00 0.00 0.00 63 1016.1
20260509200014 16 28 11.3 16.1 0.00 0.00 0.00 62 1016.0
20260509194512 16 24 11.3 17.7 0.00 0.00 0.00 60 1015.9
20260509191511 17 28 14.5 20.9 0.00 0.00 0.00 57 1015.7
20260509190026 17 30 14.5 20.9 0.00 0.00 0.00 57 1015.6
20260509184511 18 36 16.1 22.5 0.00 0.00 0.00 56 1015.6
20260509183014 18 48 12.9 20.9 0.00 0.00 0.00 57 1015.5
20260509181512 18 31 12.9 22.5 0.00 0.00 0.00 56 1015.4